• In Czech Republic
  • List of Countries
  • For 7 days
  • Water Temperature
  • Satellite Maps
  • Weather Map
  • Weather Widgets
  • user-avatar
    Login

    Hourly Weather Bogwidze

    Today, 17 August, Friday

    Time Temperature Precipitation Wind Pressure Humidity
    00:00 +20°C° 0 mm 3 mps 750 mmHg 61%
    01:00 +19°C° 0 mm 3 mps 750 mmHg 64%
    02:00 +19°C° 0 mm 3 mps 750 mmHg 68%
    03:00 +19°C° 0 mm 3 mps 750 mmHg 71%
    04:00 +18°C° 0 mm 3 mps 750 mmHg 74%
    05:00 +19°C° 0 mm 3 mps 750 mmHg 73%
    06:00 +20°C° 0 mm 3 mps 750 mmHg 71%
    07:00 +21°C° 0 mm 3 mps 750 mmHg 70%
    08:00 +24°C° 0 mm 3 mps 750 mmHg 63%
    09:00 +26°C° 0 mm 3 mps 750 mmHg 57%
    10:00 +27°C° 0 mm 4 mps 750 mmHg 51%
    11:00 +28°C° 0 mm 3 mps 750 mmHg 49%
    12:00 +28°C° 0 mm 3 mps 749 mmHg 46%
    13:00 +29°C° 0 mm 2 mps 749 mmHg 44%
    14:00 +29°C° 0 mm 2 mps 749 mmHg 43%
    15:00 +29°C° 0 mm 2 mps 749 mmHg 42%
    16:00 +29°C° 0 mm 1 mps 748 mmHg 41%
    17:00 +28°C° 0 mm 2 mps 748 mmHg 46%
    18:00 +27°C° 0 mm 2 mps 748 mmHg 51%
    19:00 +25°C° 0 mm 2 mps 748 mmHg 56%
    20:00 +24°C° 0 mm 2 mps 749 mmHg 59%
    21:00 +24°C° 0 mm 2 mps 749 mmHg 61%
    22:00 +23°C° 0 mm 2 mps 749 mmHg 64%
    23:00 +21°C° 0 mm 2 mps 749 mmHg 66%

    Tomorrow, 18 August, Saturday

    Time Temperature Precipitation Wind Pressure Humidity
    00:00 +21°C° 0 mm 2 mps 749 mmHg 68%
    01:00 +20°C° 0 mm 2 mps 749 mmHg 69%
    02:00 +20°C° 0 mm 2 mps 749 mmHg 71%
    03:00 +21°C° 0 mm 1 mps 749 mmHg 72%
    04:00 +21°C° 0 mm 1 mps 750 mmHg 74%
    05:00 +22°C° 0 mm 1 mps 750 mmHg 71%
    06:00 +23°C° 0 mm 1 mps 750 mmHg 68%
    07:00 +24°C° 0 mm 1 mps 750 mmHg 64%
    08:00 +25°C° 0 mm 1 mps 751 mmHg 60%
    09:00 +27°C° 0 mm 1 mps 751 mmHg 55%
    10:00 +28°C° 0 mm 1 mps 751 mmHg 51%
    11:00 +29°C° 0 mm 2 mps 751 mmHg 49%
    12:00 +29°C° 0 mm 2 mps 751 mmHg 46%
    13:00 +30°C° 0 mm 2 mps 751 mmHg 44%
    14:00 +30°C° 0 mm 2 mps 751 mmHg 44%
    15:00 +30°C° 0 mm 3 mps 751 mmHg 45%
    16:00 +30°C° 0 mm 3 mps 751 mmHg 45%
    17:00 +28°C° 0 mm 3 mps 751 mmHg 50%
    18:00 +27°C° 0 mm 3 mps 751 mmHg 56%
    19:00 +25°C° 0 mm 2 mps 751 mmHg 62%
    20:00 +24°C° 0.1 mm 2 mps 751 mmHg 66%
    21:00 +23°C° 0.1 mm 2 mps 752 mmHg 71%
    22:00 +21°C° 0.1 mm 2 mps 752 mmHg 76%
    23:00 +21°C° 0.1 mm 2 mps 752 mmHg 79%

    Day after tomorrow, 19 August, Sunday

    Time Temperature Precipitation Wind Pressure Humidity
    00:00 +20°C° 0.1 mm 2 mps 752 mmHg 83%
    01:00 +19°C° 0.1 mm 2 mps 752 mmHg 86%
    02:00 +19°C° 0 mm 2 mps 752 mmHg 88%
    03:00 +19°C° 0 mm 2 mps 752 mmHg 90%
    04:00 +19°C° 0 mm 1 mps 752 mmHg 92%
    05:00 +20°C° 0 mm 1 mps 752 mmHg 87%
    06:00 +21°C° 0 mm 1 mps 753 mmHg 82%
    07:00 +22°C° 0 mm 1 mps 753 mmHg 77%
    08:00 +23°C° 0 mm 1 mps 753 mmHg 68%
    09:00 +25°C° 0 mm 2 mps 753 mmHg 58%
    10:00 +26°C° 0 mm 2 mps 753 mmHg 48%
    11:00 +27°C° 0 mm 2 mps 753 mmHg 45%
    12:00 +28°C° 0 mm 2 mps 752 mmHg 41%
    13:00 +29°C° 0 mm 3 mps 752 mmHg 37%
    14:00 +29°C° 0 mm 3 mps 752 mmHg 36%
    15:00 +29°C° 0 mm 3 mps 752 mmHg 36%
    16:00 +29°C° 0 mm 3 mps 752 mmHg 35%
    17:00 +27°C° 0 mm 2 mps 752 mmHg 39%
    18:00 +26°C° 0 mm 2 mps 752 mmHg 44%
    19:00 +24°C° 0 mm 1 mps 752 mmHg 48%
    20:00 +23°C° 0 mm 1 mps 752 mmHg 50%
    21:00 +23°C° 0 mm 1 mps 752 mmHg 52%
    22:00 +22°C° 0 mm 1 mps 752 mmHg 54%
    23:00 +21°C° 0 mm 1 mps 752 mmHg 57%

    20 August, Monday

    Time Temperature Precipitation Wind Pressure Humidity
    00:00 +21°C° 0 mm 1 mps 752 mmHg 59%
    01:00 +20°C° 0 mm 1 mps 752 mmHg 62%
    02:00 +20°C° 0 mm 1 mps 752 mmHg 63%
    03:00 +20°C° 0 mm 1 mps 752 mmHg 64%
    04:00 +19°C° 0 mm 1 mps 752 mmHg 66%
    05:00 +21°C° 0 mm 1 mps 752 mmHg 63%
    06:00 +22°C° 0 mm 1 mps 752 mmHg 60%
    07:00 +23°C° 0 mm 1 mps 752 mmHg 57%
    08:00 +24°C° 0 mm 1 mps 752 mmHg 52%
    09:00 +26°C° 0 mm 1 mps 752 mmHg 48%
    10:00 +27°C° 0 mm 1 mps 752 mmHg 43%
    11:00 +28°C° 0 mm 1 mps 752 mmHg 40%
    12:00 +29°C° 0 mm 2 mps 751 mmHg 38%
    13:00 +30°C° 0 mm 2 mps 751 mmHg 35%
    14:00 +30°C° 0 mm 2 mps 751 mmHg 35%
    15:00 +30°C° 0 mm 2 mps 750 mmHg 34%
    16:00 +30°C° 0 mm 2 mps 750 mmHg 34%
    17:00 +29°C° 0 mm 1 mps 750 mmHg 38%
    18:00 +27°C° 0 mm 1 mps 750 mmHg 42%
    19:00 +26°C° 0 mm 1 mps 750 mmHg 46%
    20:00 +25°C° 0 mm 1 mps 750 mmHg 47%
    21:00 +24°C° 0 mm 1 mps 750 mmHg 49%
    22:00 +24°C° 0 mm 2 mps 750 mmHg 50%
    23:00 +23°C° 0 mm 2 mps 750 mmHg 52%

    21 August, Tuesday

    Time Temperature Precipitation Wind Pressure Humidity
    00:00 +23°C° 0 mm 2 mps 750 mmHg 54%
    01:00 +21°C° 0 mm 2 mps 750 mmHg 55%
    02:00 +21°C° 0 mm 2 mps 750 mmHg 57%
    03:00 +20°C° 0 mm 2 mps 750 mmHg 59%
    04:00 +20°C° 0 mm 2 mps 750 mmHg 61%
    05:00 +21°C° 0 mm 2 mps 750 mmHg 60%
    06:00 +23°C° 0 mm 2 mps 751 mmHg 60%
    07:00 +23°C° 0 mm 2 mps 751 mmHg 59%
    08:00 +25°C° 0 mm 2 mps 751 mmHg 56%
    09:00 +26°C° 0 mm 2 mps 751 mmHg 53%
    10:00 +28°C° 0 mm 2 mps 751 mmHg 49%
    11:00 +28°C° 0 mm 2 mps 751 mmHg 48%
    12:00 +29°C° 0 mm 3 mps 751 mmHg 46%
    13:00 +30°C° 0 mm 3 mps 751 mmHg 45%
    14:00 +30°C° 0 mm 3 mps 751 mmHg 46%
    15:00 +29°C° 0 mm 3 mps 751 mmHg 47%
    16:00 +29°C° 0 mm 3 mps 751 mmHg 48%
    17:00 +28°C° 0 mm 2 mps 751 mmHg 52%
    18:00 +27°C° 0 mm 2 mps 750 mmHg 55%
    19:00 +26°C° 0 mm 1 mps 750 mmHg 59%
    20:00 +25°C° 0 mm 1 mps 751 mmHg 61%
    21:00 +24°C° 0 mm 1 mps 751 mmHg 63%
    22:00 +21°C° 0 mm 0 mps 751 mmHg 65%
    23:00 +21°C° 0 mm 0 mps 751 mmHg 66%

    22 August, Wednesday

    Time Temperature Precipitation Wind Pressure Humidity
    00:00 +21°C° 0 mm 0 mps 751 mmHg 67%
    01:00 +20°C° 0 mm 0 mps 751 mmHg 69%
    02:00 +22°C° 0 mm 1 mps 751 mmHg 70%
    03:00 +22°C° 0 mm 1 mps 751 mmHg 70%
    04:00 +22°C° 0 mm 1 mps 751 mmHg 71%
    05:00 +23°C° 0 mm 1 mps 751 mmHg 69%
    06:00 +23°C° 0 mm 1 mps 751 mmHg 68%
    07:00 +24°C° 0 mm 1 mps 751 mmHg 66%
    08:00 +25°C° 0 mm 1 mps 751 mmHg 62%
    09:00 +26°C° 0 mm 1 mps 750 mmHg 58%
    10:00 +27°C° 0 mm 1 mps 750 mmHg 54%
    11:00 +28°C° 0 mm 2 mps 750 mmHg 51%
    12:00 +29°C° 0 mm 2 mps 750 mmHg 48%
    13:00 +31°C° 0 mm 2 mps 749 mmHg 44%
    14:00 +30°C° 0 mm 2 mps 749 mmHg 45%
    15:00 +30°C° 0 mm 2 mps 749 mmHg 46%
    16:00 +30°C° 0 mm 1 mps 749 mmHg 47%
    17:00 +29°C° 0 mm 1 mps 749 mmHg 51%
    18:00 +28°C° 0 mm 1 mps 748 mmHg 54%
    19:00 +26°C° 0 mm 1 mps 748 mmHg 57%
    20:00 +26°C° 0 mm 1 mps 748 mmHg 58%
    21:00 +25°C° 0 mm 1 mps 749 mmHg 60%
    22:00 +23°C° 0 mm 0 mps 749 mmHg 62%
    23:00 +22°C° 0 mm 0 mps 749 mmHg 63%
    Show more